Time,TemperatureF,DewpointF,PressureIn,WindDirection,WindDirectionDegrees,WindSpeedMPH,WindSpeedGustMPH,Humidity,HourlyPrecipIn,Conditions,Clouds,dailyrainin,SoftwareType,DateUTC
2013-05-05 00:15:00,54.1,46.4,30.06,East,90,0.0,-999.0,75,-99.99,,,0.00,Acu-Link.com,2013-05-05 04:15:00,
2013-05-05 00:30:00,53.6,47.2,30.07,East,90,0.0,-999.0,79,-99.99,,,0.00,Acu-Link.com,2013-05-05 04:30:00,
2013-05-05 00:45:00,52.7,46.7,30.06,East,90,0.0,-999.0,80,-99.99,,,0.00,Acu-Link.com,2013-05-05 04:45:00,
2013-05-05 01:00:00,52.3,47.3,30.07,ESE,112,0.0,-999.0,83,-99.99,,,0.00,Acu-Link.com,2013-05-05 05:00:00,
2013-05-05 01:16:00,51.4,47.0,30.08,ESE,112,0.0,-999.0,85,-99.99,,,0.00,Acu-Link.com,2013-05-05 05:16:00,
2013-05-05 01:31:00,50.9,46.9,30.06,West,270,0.0,-999.0,86,-99.99,,,0.00,Acu-Link.com,2013-05-05 05:31:00,
2013-05-05 01:46:00,50.4,46.7,30.07,East,90,0.0,-999.0,87,-99.99,,,0.00,Acu-Link.com,2013-05-05 05:46:00,
2013-05-05 02:01:00,50.0,46.6,30.06,East,90,0.0,-999.0,88,-99.99,,,0.00,Acu-Link.com,2013-05-05 06:01:00,
2013-05-05 02:16:00,49.6,46.5,30.06,East,90,0.0,-999.0,89,-99.99,,,0.00,Acu-Link.com,2013-05-05 06:16:00,
2013-05-05 02:32:00,48.9,45.8,30.07,East,90,0.0,-999.0,89,-99.99,,,0.00,Acu-Link.com,2013-05-05 06:32:00,
2013-05-05 02:47:00,48.7,46.2,30.06,West,270,0.0,-999.0,91,-99.99,,,0.00,Acu-Link.com,2013-05-05 06:47:00,
2013-05-05 03:02:00,48.4,45.9,30.06,SSE,157,0.0,-999.0,91,-99.99,,,0.00,Acu-Link.com,2013-05-05 07:02:00,
2013-05-05 03:18:00,48.2,46.0,30.07,ESE,112,0.0,-999.0,92,-99.99,,,0.00,Acu-Link.com,2013-05-05 07:18:00,
2013-05-05 03:33:00,48.0,46.1,30.07,ESE,112,0.0,-999.0,93,-99.99,,,0.00,Acu-Link.com,2013-05-05 07:33:00,
2013-05-05 03:48:00,47.8,46.2,30.07,West,270,0.0,-999.0,94,-99.99,,,0.00,Acu-Link.com,2013-05-05 07:48:00,
2013-05-05 04:03:00,47.8,47.3,30.07,North,0,0.0,-999.0,98,-99.99,,,0.00,Acu-Link.com,2013-05-05 08:03:00,
2013-05-05 04:19:00,47.7,47.2,30.08,ENE,67,0.0,-999.0,98,-99.99,,,0.00,Acu-Link.com,2013-05-05 08:19:00,
2013-05-05 04:34:00,47.7,47.2,30.07,NNE,22,0.0,-999.0,98,-99.99,,,0.00,Acu-Link.com,2013-05-05 08:34:00,
2013-05-05 04:49:00,47.5,47.0,30.08,NNE,22,0.0,-999.0,98,-99.99,,,0.00,Acu-Link.com,2013-05-05 08:49:00,
2013-05-05 05:04:00,47.1,46.6,30.08,SSW,202,0.0,-999.0,98,-99.99,,,0.00,Acu-Link.com,2013-05-05 09:04:00,
2013-05-05 05:19:00,46.2,45.7,30.09,SSW,202,0.0,-999.0,98,-99.99,,,0.00,Acu-Link.com,2013-05-05 09:19:00,
2013-05-05 05:35:00,46.0,45.5,30.09,South,180,0.0,-999.0,98,-99.99,,,0.00,Acu-Link.com,2013-05-05 09:35:00,
2013-05-05 05:50:00,45.7,44.4,30.10,South,180,0.0,-999.0,95,-99.99,,,0.00,Acu-Link.com,2013-05-05 09:50:00,
2013-05-05 06:05:00,45.5,44.4,30.10,NNW,337,0.0,-999.0,96,-99.99,,,0.00,Acu-Link.com,2013-05-05 10:05:00,
2013-05-05 06:20:00,45.7,45.2,30.09,NE,45,0.0,-999.0,98,-99.99,,,0.00,Acu-Link.com,2013-05-05 10:20:00,
2013-05-05 06:36:00,46.0,45.5,30.11,NE,45,0.0,-999.0,98,-99.99,,,0.00,Acu-Link.com,2013-05-05 10:36:00,
2013-05-05 06:51:00,46.4,45.0,30.11,NE,45,0.0,-999.0,95,-99.99,,,0.00,Acu-Link.com,2013-05-05 10:51:00,
2013-05-05 07:06:00,48.0,47.5,30.11,NE,45,0.0,-999.0,98,-99.99,,,0.00,Acu-Link.com,2013-05-05 11:06:00,
2013-05-05 07:22:00,49.3,48.8,30.12,NE,45,0.0,-999.0,98,-99.99,,,0.00,Acu-Link.com,2013-05-05 11:22:00,
2013-05-05 07:37:00,51.8,51.3,30.12,South,180,0.0,-999.0,98,-99.99,,,0.00,Acu-Link.com,2013-05-05 11:37:00,
2013-05-05 07:52:00,55.0,51.8,30.12,West,270,0.0,-999.0,89,-99.99,,,0.00,Acu-Link.com,2013-05-05 11:52:00,
2013-05-05 08:08:00,57.4,52.6,30.12,NNW,337,0.0,-999.0,84,-99.99,,,0.00,Acu-Link.com,2013-05-05 12:08:00,
2013-05-05 08:23:00,60.1,52.9,30.12,NE,45,0.0,-999.0,77,-99.99,,,0.00,Acu-Link.com,2013-05-05 12:23:00,
2013-05-05 08:38:00,64.6,51.3,30.13,West,270,0.0,-999.0,62,-99.99,,,0.00,Acu-Link.com,2013-05-05 12:38:00,
2013-05-05 08:53:00,69.4,51.5,30.11,West,270,2.2,-999.0,53,-99.99,,,0.00,Acu-Link.com,2013-05-05 12:53:00,
2013-05-05 09:09:00,74.5,52.9,30.12,WNW,292,2.7,-999.0,47,-99.99,,,0.00,Acu-Link.com,2013-05-05 13:09:00,
2013-05-05 09:24:00,77.5,52.6,30.11,NNE,22,1.1,-999.0,42,-99.99,,,0.00,Acu-Link.com,2013-05-05 13:24:00,
2013-05-05 09:39:00,79.2,53.4,30.11,East,90,1.7,-999.0,41,-99.99,,,0.00,Acu-Link.com,2013-05-05 13:39:00,
2013-05-05 09:54:00,71.6,50.3,30.10,ESE,112,1.7,-999.0,47,-99.99,,,0.00,Acu-Link.com,2013-05-05 13:54:00,
2013-05-05 10:10:00,72.9,50.3,30.11,North,0,2.7,-999.0,45,-99.99,,,0.00,Acu-Link.com,2013-05-05 14:10:00,
2013-05-05 10:25:00,73.4,50.1,30.10,SE,135,2.2,-999.0,44,-99.99,,,0.00,Acu-Link.com,2013-05-05 14:25:00,
2013-05-05 10:40:00,73.4,51.3,30.11,NNW,337,1.7,-999.0,46,-99.99,,,0.00,Acu-Link.com,2013-05-05 14:40:00,
2013-05-05 10:55:00,74.1,52.0,30.11,NE,45,2.2,-999.0,46,-99.99,,,0.00,Acu-Link.com,2013-05-05 14:55:00,
2013-05-05 11:11:00,73.9,50.0,30.09,WSW,247,1.7,-999.0,43,-99.99,,,0.00,Acu-Link.com,2013-05-05 15:11:00,
2013-05-05 11:26:00,76.5,50.4,30.09,NW,315,5.8,-999.0,40,-99.99,,,0.00,Acu-Link.com,2013-05-05 15:26:00,
2013-05-05 11:41:00,75.0,52.2,30.09,ENE,67,3.7,-999.0,45,-99.99,,,0.00,Acu-Link.com,2013-05-05 15:41:00,
2013-05-05 11:56:00,75.4,52.6,30.08,West,270,1.7,-999.0,45,-99.99,,,0.00,Acu-Link.com,2013-05-05 15:56:00,
2013-05-05 12:11:00,77.5,52.6,30.07,West,270,3.7,-999.0,42,-99.99,,,0.00,Acu-Link.com,2013-05-05 16:11:00,
2013-05-05 12:27:00,76.8,53.2,30.07,ESE,112,1.1,-999.0,44,-99.99,,,0.00,Acu-Link.com,2013-05-05 16:27:00,
2013-05-05 12:42:00,78.1,50.4,30.06,North,0,2.2,-999.0,38,-99.99,,,0.00,Acu-Link.com,2013-05-05 16:42:00,
2013-05-05 12:57:00,76.8,50.6,30.05,SSW,202,1.1,-999.0,40,-99.99,,,0.00,Acu-Link.com,2013-05-05 16:57:00,
2013-05-05 13:13:00,78.1,51.8,30.04,East,90,2.7,-999.0,40,-99.99,,,0.00,Acu-Link.com,2013-05-05 17:13:00,
2013-05-05 13:28:00,78.3,52.6,30.03,West,270,1.7,-999.0,41,-99.99,,,0.00,Acu-Link.com,2013-05-05 17:28:00,
2013-05-05 13:43:00,79.0,51.9,30.04,East,90,3.7,-999.0,39,-99.99,,,0.00,Acu-Link.com,2013-05-05 17:43:00,
2013-05-05 13:59:00,78.4,51.4,30.02,East,90,4.7,-999.0,39,-99.99,,,0.00,Acu-Link.com,2013-05-05 17:59:00,
2013-05-05 14:14:00,80.1,52.2,30.01,WNW,292,3.7,-999.0,38,-99.99,,,0.00,Acu-Link.com,2013-05-05 18:14:00,
2013-05-05 14:29:00,79.2,52.1,30.01,North,0,3.2,-999.0,39,-99.99,,,0.00,Acu-Link.com,2013-05-05 18:29:00,
2013-05-05 14:44:00,80.1,51.5,30.00,West,270,2.7,-999.0,37,-99.99,,,0.00,Acu-Link.com,2013-05-05 18:44:00,
2013-05-05 15:00:00,81.3,51.8,30.01,NNW,337,4.2,-999.0,36,-99.99,,,0.00,Acu-Link.com,2013-05-05 19:00:00,
2013-05-05 15:15:00,80.8,48.2,30.00,ESE,112,3.7,-999.0,32,-99.99,,,0.00,Acu-Link.com,2013-05-05 19:15:00,
2013-05-05 15:30:00,80.2,48.5,29.99,ENE,67,3.7,-999.0,33,-99.99,,,0.00,Acu-Link.com,2013-05-05 19:30:00,
2013-05-05 15:45:00,81.1,48.4,29.98,WNW,292,2.7,-999.0,32,-99.99,,,0.00,Acu-Link.com,2013-05-05 19:45:00,
2013-05-05 16:01:00,80.2,47.6,29.97,SW,225,1.7,-999.0,32,-99.99,,,0.00,Acu-Link.com,2013-05-05 20:01:00,
2013-05-05 16:16:00,80.8,49.8,29.96,ENE,67,5.8,-999.0,34,-99.99,,,0.00,Acu-Link.com,2013-05-05 20:16:00,
2013-05-05 16:31:00,79.2,52.8,29.97,NNE,22,2.2,-999.0,40,-99.99,,,0.00,Acu-Link.com,2013-05-05 20:31:00,
2013-05-05 16:46:00,78.4,52.1,29.97,NE,45,3.7,-999.0,40,-99.99,,,0.00,Acu-Link.com,2013-05-05 20:46:00,
2013-05-05 17:01:00,78.3,53.9,29.95,ENE,67,2.2,-999.0,43,-99.99,,,0.00,Acu-Link.com,2013-05-05 21:01:00,
2013-05-05 17:17:00,76.3,53.4,29.95,WNW,292,4.2,-999.0,45,-99.99,,,0.00,Acu-Link.com,2013-05-05 21:17:00,
2013-05-05 17:32:00,76.1,52.6,29.95,NNW,337,2.7,-999.0,44,-99.99,,,0.00,Acu-Link.com,2013-05-05 21:32:00,
2013-05-05 17:47:00,75.9,53.0,29.96,West,270,4.2,-999.0,45,-99.99,,,0.00,Acu-Link.com,2013-05-05 21:47:00,
2013-05-05 18:03:00,74.7,52.5,29.96,NNE,22,2.2,-999.0,46,-99.99,,,0.00,Acu-Link.com,2013-05-05 22:03:00,
2013-05-05 18:18:00,74.5,52.3,29.96,ESE,112,2.2,-999.0,46,-99.99,,,0.00,Acu-Link.com,2013-05-05 22:18:00,
2013-05-05 18:33:00,74.3,52.2,29.96,WNW,292,3.2,-999.0,46,-99.99,,,0.00,Acu-Link.com,2013-05-05 22:33:00,
2013-05-05 18:49:00,73.4,51.3,29.95,West,270,4.2,-999.0,46,-99.99,,,0.00,Acu-Link.com,2013-05-05 22:49:00,
2013-05-05 19:04:00,72.3,51.5,29.96,SW,225,2.2,-999.0,48,-99.99,,,0.00,Acu-Link.com,2013-05-05 23:04:00,
2013-05-05 19:19:00,71.1,51.0,29.97,NE,45,3.2,-999.0,49,-99.99,,,0.00,Acu-Link.com,2013-05-05 23:19:00,
2013-05-05 19:35:00,70.2,50.7,29.96,West,270,1.7,-999.0,50,-99.99,,,0.00,Acu-Link.com,2013-05-05 23:35:00,
2013-05-05 19:50:00,68.9,50.5,29.97,NE,45,3.7,-999.0,52,-99.99,,,0.00,Acu-Link.com,2013-05-05 23:50:00,
2013-05-05 20:05:00,67.6,49.9,29.96,NNW,337,2.2,-999.0,53,-99.99,,,0.00,Acu-Link.com,2013-05-06 00:05:00,
2013-05-05 20:20:00,66.6,49.9,29.97,NNE,22,0.0,-999.0,55,-99.99,,,0.00,Acu-Link.com,2013-05-06 00:20:00,
2013-05-05 20:36:00,65.5,49.9,29.97,North,0,1.1,-999.0,57,-99.99,,,0.00,Acu-Link.com,2013-05-06 00:36:00,
2013-05-05 20:51:00,64.2,49.1,29.97,NNW,337,0.0,-999.0,58,-99.99,,,0.00,Acu-Link.com,2013-05-06 00:51:00,
2013-05-05 21:06:00,63.1,49.0,29.99,West,270,2.2,-999.0,60,-99.99,,,0.00,Acu-Link.com,2013-05-06 01:06:00,
2013-05-05 21:22:00,62.4,49.2,29.98,NE,45,2.7,-999.0,62,-99.99,,,0.00,Acu-Link.com,2013-05-06 01:22:00,
2013-05-05 21:37:00,61.5,49.2,29.98,WSW,247,0.0,-999.0,64,-99.99,,,0.00,Acu-Link.com,2013-05-06 01:37:00,
2013-05-05 21:52:00,60.4,49.0,29.98,West,270,0.0,-999.0,66,-99.99,,,0.00,Acu-Link.com,2013-05-06 01:52:00,
2013-05-05 22:08:00,59.4,48.8,29.99,East,90,0.0,-999.0,68,-99.99,,,0.00,Acu-Link.com,2013-05-06 02:08:00,
2013-05-05 22:23:00,57.6,47.9,29.99,ESE,112,0.0,-999.0,70,-99.99,,,0.00,Acu-Link.com,2013-05-06 02:23:00,
2013-05-05 22:38:00,56.5,46.8,29.99,SSE,157,0.0,-999.0,70,-99.99,,,0.00,Acu-Link.com,2013-05-06 02:38:00,
2013-05-05 22:54:00,55.4,46.2,29.99,SSE,157,0.0,-999.0,71,-99.99,,,0.00,Acu-Link.com,2013-05-06 02:54:00,
2013-05-05 23:09:00,54.7,47.6,30.00,North,0,0.0,-999.0,77,-99.99,,,0.00,Acu-Link.com,2013-05-06 03:09:00,
2013-05-05 23:24:00,54.1,48.1,29.99,North,0,0.0,-999.0,80,-99.99,,,0.00,Acu-Link.com,2013-05-06 03:24:00,
2013-05-05 23:40:00,53.2,46.5,30.00,North,0,0.0,-999.0,78,-99.99,,,0.00,Acu-Link.com,2013-05-06 03:40:00,
2013-05-05 23:55:00,52.7,47.4,30.00,NNE,22,0.0,-999.0,82,-99.99,,,0.00,Acu-Link.com,2013-05-06 03:55:00,